This is the latest recevied weather packets stored in our database for station/object WP4NYS-13. If no packets are shown the sender has not sent any weather packets the latest 10 day(s).
| Time | Temp. | Humidity | Pressure | Rain* | Wind** | Luminosity | Snow |
|---|---|---|---|---|---|---|---|
| 1777379826 | 20° C | 85% | 1021.6 hPa | 0 mm | - | - | - |
| 1777379522 | 20° C | 86% | 1021.4 hPa | 0 mm | - | - | - |
| 1777379217 | 20° C | 86% | 1021.4 hPa | 0 mm | - | - | - |
| 1777378912 | 19.44° C | 87% | 1021.1 hPa | 0 mm | - | - | - |
| 1777378609 | 19.44° C | 87% | 1021 hPa | 0 mm | - | - | - |
| 1777378305 | 19.44° C | 87% | 1020.7 hPa | 0 mm | - | - | - |
| 1777378004 | 18.89° C | 88% | 1020.9 hPa | 0 mm | - | - | - |
| 1777377704 | 18.89° C | 89% | 1020.8 hPa | 0 mm | - | - | - |
| 1777377399 | 18.33° C | 89% | 1020.7 hPa | 0 mm | - | - | - |
| 1777377096 | 18.33° C | 90% | 1020.6 hPa | 0 mm | - | - | - |
| 1777376792 | 17.78° C | 91% | 1020.6 hPa | 0 mm | - | - | - |
| 1777376490 | 17.78° C | 91% | 1020.6 hPa | 0 mm | - | - | - |
| 1777376185 | 17.78° C | 91% | 1020.6 hPa | 0 mm | - | - | - |
| 1777375881 | 17.22° C | 91% | 1020.5 hPa | 0 mm | - | - | - |
| 1777375575 | 17.22° C | 91% | 1020.3 hPa | 0 mm | - | - | - |
| 1777375271 | 17.22° C | 91% | 1020.4 hPa | 0 mm | - | - | - |
| 1777374968 | 17.22° C | 91% | 1020.2 hPa | 0 mm | - | - | - |
| 1777374663 | 17.22° C | 90% | 1020.3 hPa | 0 mm | - | - | - |
| 1777374359 | 17.22° C | 90% | 1020.3 hPa | 0 mm | - | - | - |
| 1777374056 | 17.22° C | 89% | 1020.2 hPa | 0 mm | - | - | - |
| 1777373752 | 17.78° C | 89% | 1020.2 hPa | 0 mm | - | - | - |
| 1777373450 | 17.78° C | 89% | 1020.1 hPa | 0 mm | - | - | - |
| 1777373145 | 17.78° C | 88% | 1020.2 hPa | 0 mm | - | - | - |
| 1777372840 | 17.78° C | 88% | 1020 hPa | 0 mm | - | - | - |
| 1777372535 | 17.78° C | 88% | 1019.7 hPa | 0 mm | - | - | - |
* Rain latest hour (hover to see other rain measurements)
** Current wind speed in m/s (hover to see current wind gust speed)